Regional Weather Roundup
Issued by NWS Mt. Holly, NJ

Home | Current Version | Previous Version | Text Only | Print | Product List | Glossary On
Versions: 1 2 3 4 5 6 7 8 9 10 11 12 13 14 15 16 17 18 19 20 21 22 23 24 25 26 27
000
ASUS41 KPHI 011210
RWRPHI

REGIONAL WEATHER ROUNDUP
NATIONAL WEATHER SERVICE MOUNT HOLLY NJ
800 AM EDT SAT NOV 01 2014

NOTE:  "FAIR" INDICATES FEW OR NO CLOUDS BELOW 12,000 FEET WITH NO
SIGNIFICANT WEATHER AND/OR OBSTRUCTIONS TO VISIBILITY.

 * = STATION DOES NOT REPORT PRECIPITATION (E.G. RAIN, SNOW, ETC.)
        OR FOG.

NJZ015>026-011300-
SOUTHERN NEW JERSEY

CITY           SKY/WX    TMP DP  RH WIND       PRES   REMARKS
POMONA         LGT RAIN  46  44  93 N22G32    29.71R
6HR MIN TEMP:  46; 6HR MAX TEMP:  53; 6HR PCP:  1.06;

RIO GRANDE*    CLOUDY    48  43  81 N17G26    29.68R
MILLVILLE      CLOUDY    46  43  89 NE22G33   29.71S
WRIGHTSTOWN    RAIN      44  42  94 N21       29.77F
MOUNT HOLLY    RAIN      44  41  89 N16G24    29.79S FOG
TRENTON        RAIN      43  39  86 N12       29.83R FOG
6HR MIN TEMP:  43; 6HR MAX TEMP:  50; 6HR PCP:  0.35;


$$
NJZ001>014-011300-
NORTHERN NEW JERSEY

CITY           SKY/WX    TMP DP  RH WIND       PRES   REMARKS
SUSSEX         LGT RAIN  45  38  76 NE8       29.88R
ANDOVER*         N/A     42  39  89 NE7       29.88R
MORRISTOWN     LGT RAIN  45  41  87 N10       29.85S
NEWARK         LGT RAIN  45  41  86 N13       29.85R
TETERBORO      LGT RAIN  47  36  65 N8        29.84R
CALDWELL       LGT RAIN  45  35  68 NE7       29.87R
SOMERVILLE     LGT RAIN  44  40  85 N6        29.84R
ALLAIRE*       CLOUDY    45  37  76 N13G20    29.81R
TOMS RIVER*    CLOUDY    45  43  93 N8        29.79R

$$
PAZ043-044-047-054-055-060>062-066>071-011300-
EASTERN PENNSYLVANIA

CITY           SKY/WX    TMP DP  RH WIND       PRES   REMARKS
PHILADELPHIA   HVY RAIN  45  41  86 N25G32    29.79F FOG
6HR MIN TEMP:  45; 6HR MAX TEMP:  52; 6HR PCP:  0.36;

NORTH PHILA    RAIN      45  40  82 N17       29.83R
BLUE BELL      CLOUDY    45  43  93 NE7       29.83R
DOYLESTOWN     RAIN      42  41  96 N9        29.84R
QUAKERTOWN*    CLOUDY    43  39  87 NE8       29.86R
POTTSTOWN      RAIN      43  40  89 NE14      29.85R
LANCASTER      CLOUDY    46  39  76 NE13      29.84R
COATESVILLE    RAIN      43  41  93 NE12G23   29.81F
READING        CLOUDY    46  39  76 NE15      29.85R
6HR MIN TEMP:  46; 6HR MAX TEMP:  49; 6HR PCP:  0.02;

ALLENTOWN      LGT RAIN  44  39  82 NE9       29.87R
6HR MIN TEMP:  44; 6HR MAX TEMP:  49; 6HR PCP:  0.07;

MOUNT POCONO   CLOUDY    40  34  79 NE13      29.85R WCI  32
6HR MIN TEMP:  40; 6HR MAX TEMP:  42;

HAZLETON       CLOUDY    43  37  81 N9        29.89R
WILKES BARRE   LGT RAIN  45  39  79 NE8       29.89R

$$
DEZALL-MDZ008-012-015-019-020-011300-
DELAWARE AND EASTERN MARYLAND

CITY           SKY/WX    TMP DP  RH WIND       PRES   REMARKS
WILMINGTON     LGT RAIN  45  42  89 N18G30    29.80R
6HR MIN TEMP:  45; 6HR MAX TEMP:  51; 6HR PCP:  0.18;

DOVER          RAIN      46  46 100 N18G32    29.72R FOG
GEORGETOWN     RAIN      49  46  90 N10G20    29.72R
6HR MIN TEMP:  49; 6HR MAX TEMP:  52; 6HR PCP:  0.39;

PATUXENT       LGT RAIN  52  46  80 N16       29.72S
OCEAN CITY     CLOUDY    53  50  89 N14G26    29.66R
WALLOPS ISLAND CLOUDY    51  49  92 N15G22    29.66S
CAMBRIDGE      CLOUDY    52  46  82 N12       29.73R
SALISBURY      CLOUDY    53  47  79 N12G22    29.69R

$$
PAZ001-021-NYZ056-072-MDZ011-DCZ001-011300-
OTHER NEARBY LOCATIONS

CITY           SKY/WX    TMP DP  RH WIND       PRES   REMARKS
HARRISBURG     CLOUDY    46  40  79 N5        29.85R
STATE COLLEGE  CLOUDY    41  36  81 VRB5      29.90R
WILLIAMSPORT   CLOUDY    46  34  62 N7        29.91R
BINGHAMTON     CLOUDY    38  33  82 NE9       29.92R WCI  31
NEW YORK CITY  CLOUDY    46  37  71 NE9G16    29.86R
BALTIMORE      LGT RAIN  49  42  77 N12G18    29.78R
WASHINGTON DC  CLOUDY    51  40  65 N14       29.79S

$$



USA.gov is the U.S. government's official web portal to all federal, state and local government web resources and services.